Year,Month,Day,Hour,Minute,Value (Times are PST for temperature in C)
2020,08,08,00,00,13.90
2020,08,08,00,01,13.90
2020,08,08,00,02,13.90
2020,08,08,00,03,13.80
2020,08,08,00,04,13.80
2020,08,08,00,05,13.80
2020,08,08,00,06,13.80
2020,08,08,00,07,13.80
2020,08,08,00,08,13.70
2020,08,08,00,09,13.70
2020,08,08,00,10,13.70
2020,08,08,00,11,13.70
2020,08,08,00,12,13.70
2020,08,08,00,13,13.70
2020,08,08,00,14,13.70
2020,08,08,00,15,13.70
2020,08,08,00,16,13.70
2020,08,08,00,17,13.70
2020,08,08,00,18,13.60
2020,08,08,00,19,13.70
2020,08,08,00,20,13.60
2020,08,08,00,21,13.60
2020,08,08,00,22,13.60
2020,08,08,00,23,13.60
2020,08,08,00,24,13.60
2020,08,08,00,25,13.60
2020,08,08,00,26,13.60
2020,08,08,00,27,13.60
2020,08,08,00,28,13.60
2020,08,08,00,29,13.60
2020,08,08,00,30,13.60
2020,08,08,00,31,13.60
2020,08,08,00,32,13.60
2020,08,08,00,33,13.60
2020,08,08,00,34,13.60
2020,08,08,00,35,13.60
2020,08,08,00,36,13.60
2020,08,08,00,37,13.60
2020,08,08,00,38,13.60
2020,08,08,00,39,13.60
2020,08,08,00,40,13.60
2020,08,08,00,41,13.60
2020,08,08,00,42,13.60
2020,08,08,00,43,13.60
2020,08,08,00,44,13.60
2020,08,08,00,45,13.60
2020,08,08,00,46,13.60
2020,08,08,00,47,13.60
2020,08,08,00,48,13.60
2020,08,08,00,49,13.60
2020,08,08,00,50,13.60
2020,08,08,00,51,13.60
2020,08,08,00,52,13.60
2020,08,08,00,53,13.60
2020,08,08,00,54,13.60
2020,08,08,00,55,13.60
2020,08,08,00,56,13.60
2020,08,08,00,57,13.60
2020,08,08,00,58,13.60
2020,08,08,00,59,13.60
2020,08,08,01,00,13.60
2020,08,08,01,01,13.60
2020,08,08,01,02,13.60
2020,08,08,01,03,13.60
2020,08,08,01,04,13.60
2020,08,08,01,05,13.60
2020,08,08,01,06,13.60
2020,08,08,01,07,13.60
2020,08,08,01,08,13.60
2020,08,08,01,09,13.60
2020,08,08,01,10,13.60
2020,08,08,01,11,13.50
2020,08,08,01,12,13.50
2020,08,08,01,13,13.50
2020,08,08,01,14,13.50
2020,08,08,01,15,13.50
2020,08,08,01,16,13.50
2020,08,08,01,17,13.50
2020,08,08,01,18,13.50
2020,08,08,01,19,13.50
2020,08,08,01,20,13.50
2020,08,08,01,21,13.50
2020,08,08,01,22,13.50
2020,08,08,01,23,13.50
2020,08,08,01,24,13.50
2020,08,08,01,25,13.50
2020,08,08,01,26,13.50
2020,08,08,01,27,13.50
2020,08,08,01,28,13.50
2020,08,08,01,29,13.50
2020,08,08,01,30,13.50
2020,08,08,01,31,13.50
2020,08,08,01,32,13.50
2020,08,08,01,33,13.50
2020,08,08,01,34,13.50
2020,08,08,01,35,13.50
2020,08,08,01,36,13.50
2020,08,08,01,37,13.50
2020,08,08,01,38,13.50
2020,08,08,01,39,13.50
2020,08,08,01,40,13.50
2020,08,08,01,41,13.50
2020,08,08,01,42,13.50
2020,08,08,01,43,13.40
2020,08,08,01,44,13.40
2020,08,08,01,45,13.40
2020,08,08,01,46,13.40
2020,08,08,01,47,13.40
2020,08,08,01,48,13.40
2020,08,08,01,49,13.40
2020,08,08,01,50,13.40
2020,08,08,01,51,13.40
2020,08,08,01,52,13.40
2020,08,08,01,53,13.40
2020,08,08,01,54,13.40
2020,08,08,01,55,13.40
2020,08,08,01,56,13.40
2020,08,08,01,57,13.40
2020,08,08,01,58,13.40
2020,08,08,01,59,13.40
2020,08,08,02,00,13.40
2020,08,08,02,01,13.40
2020,08,08,02,02,13.40
2020,08,08,02,03,13.40
2020,08,08,02,04,13.40
2020,08,08,02,05,13.40
2020,08,08,02,06,13.40
2020,08,08,02,07,13.40
2020,08,08,02,08,13.40
2020,08,08,02,09,13.40
2020,08,08,02,10,13.40
2020,08,08,02,11,13.40
2020,08,08,02,12,13.40
2020,08,08,02,13,13.40
2020,08,08,02,14,13.40
2020,08,08,02,15,13.40
2020,08,08,02,16,13.40
2020,08,08,02,17,13.40
2020,08,08,02,18,13.40
2020,08,08,02,19,13.40
2020,08,08,02,20,13.40
2020,08,08,02,21,13.40
2020,08,08,02,22,13.40
2020,08,08,02,23,13.40
2020,08,08,02,24,13.40
2020,08,08,02,25,13.40
2020,08,08,02,26,13.40
2020,08,08,02,27,13.40
2020,08,08,02,28,13.40
2020,08,08,02,29,13.40
2020,08,08,02,30,13.40
2020,08,08,02,31,13.40
2020,08,08,02,32,13.40
2020,08,08,02,33,13.40
2020,08,08,02,34,13.30
2020,08,08,02,35,13.30
2020,08,08,02,36,13.30
2020,08,08,02,37,13.30
2020,08,08,02,38,13.30
2020,08,08,02,39,13.30
2020,08,08,02,40,13.30
2020,08,08,02,41,13.30
2020,08,08,02,42,13.30
2020,08,08,02,43,13.30
2020,08,08,02,44,13.30
2020,08,08,02,45,13.30
2020,08,08,02,46,13.30
2020,08,08,02,47,13.30
2020,08,08,02,48,13.30
2020,08,08,02,49,13.30
2020,08,08,02,50,13.30
2020,08,08,02,51,13.30
2020,08,08,02,52,13.30
2020,08,08,02,53,13.30
2020,08,08,02,54,13.30
2020,08,08,02,55,13.30
2020,08,08,02,56,13.30
2020,08,08,02,57,13.30
2020,08,08,02,58,13.30
2020,08,08,02,59,13.30
2020,08,08,03,00,13.30
2020,08,08,03,01,13.30
2020,08,08,03,02,13.30
2020,08,08,03,03,13.30
2020,08,08,03,04,13.30
2020,08,08,03,05,13.30
2020,08,08,03,06,13.30
2020,08,08,03,07,13.30
2020,08,08,03,08,13.30
2020,08,08,03,09,13.30
2020,08,08,03,10,13.20
2020,08,08,03,11,13.20
2020,08,08,03,12,13.20
2020,08,08,03,13,13.20
2020,08,08,03,14,13.20
2020,08,08,03,15,13.20
2020,08,08,03,16,13.20
2020,08,08,03,17,13.20
2020,08,08,03,18,13.20
2020,08,08,03,19,13.20
2020,08,08,03,20,13.20
2020,08,08,03,21,13.20
2020,08,08,03,22,13.20
2020,08,08,03,23,13.10
2020,08,08,03,24,13.10
2020,08,08,03,25,13.10
2020,08,08,03,26,13.10
2020,08,08,03,27,13.10
2020,08,08,03,28,13.10
2020,08,08,03,29,13.10
2020,08,08,03,30,13.10
2020,08,08,03,31,13.10
2020,08,08,03,32,13.10
2020,08,08,03,33,13.10
2020,08,08,03,34,13.00
2020,08,08,03,35,13.00
2020,08,08,03,36,13.00
2020,08,08,03,37,13.00
2020,08,08,03,38,13.00
2020,08,08,03,39,13.00
2020,08,08,03,40,13.00
2020,08,08,03,41,13.00
2020,08,08,03,42,13.00
2020,08,08,03,43,13.00
2020,08,08,03,44,13.00
2020,08,08,03,45,13.00
2020,08,08,03,46,13.00
2020,08,08,03,47,13.00
2020,08,08,03,48,13.00
2020,08,08,03,49,13.00
2020,08,08,03,50,13.00
2020,08,08,03,51,13.00
2020,08,08,03,52,13.00
2020,08,08,03,53,13.00
2020,08,08,03,54,13.00
2020,08,08,03,55,13.00
2020,08,08,03,56,13.00
2020,08,08,03,57,13.00
2020,08,08,03,58,13.00
2020,08,08,03,59,12.90
2020,08,08,04,00,12.90
2020,08,08,04,01,12.90
2020,08,08,04,02,12.90
2020,08,08,04,03,12.90
2020,08,08,04,04,12.90
2020,08,08,04,05,12.90
2020,08,08,04,06,12.90
2020,08,08,04,07,12.90
2020,08,08,04,08,12.80
2020,08,08,04,09,12.80
2020,08,08,04,10,12.80
2020,08,08,04,11,12.80
2020,08,08,04,12,12.80
2020,08,08,04,13,12.80
2020,08,08,04,14,12.80
2020,08,08,04,15,12.80
2020,08,08,04,16,12.80
2020,08,08,04,17,12.80
2020,08,08,04,18,12.80
2020,08,08,04,19,12.80
2020,08,08,04,20,12.80
2020,08,08,04,21,12.80
2020,08,08,04,22,12.80
2020,08,08,04,23,12.80
2020,08,08,04,24,12.80
2020,08,08,04,25,12.80
2020,08,08,04,26,12.70
2020,08,08,04,27,12.70
2020,08,08,04,28,12.70
2020,08,08,04,29,12.70
2020,08,08,04,30,12.70
2020,08,08,04,31,12.70
2020,08,08,04,32,12.70
2020,08,08,04,33,12.70
2020,08,08,04,34,12.70
2020,08,08,04,35,12.70
2020,08,08,04,36,12.70
2020,08,08,04,37,12.70
2020,08,08,04,38,12.70
2020,08,08,04,39,12.70
2020,08,08,04,40,12.70
2020,08,08,04,41,12.70
2020,08,08,04,42,12.70
2020,08,08,04,43,12.70
2020,08,08,04,44,12.70
2020,08,08,04,45,12.70
2020,08,08,04,46,12.70
2020,08,08,04,47,12.70
2020,08,08,04,48,12.70
2020,08,08,04,49,12.70
2020,08,08,04,50,12.70
2020,08,08,04,51,12.70
2020,08,08,04,52,12.70
2020,08,08,04,53,12.70
2020,08,08,04,54,12.70
2020,08,08,04,55,12.70
2020,08,08,04,56,12.60
2020,08,08,04,57,12.60
2020,08,08,04,58,12.60
2020,08,08,04,59,12.60
2020,08,08,05,00,12.60
2020,08,08,05,01,12.60
2020,08,08,05,02,12.60
2020,08,08,05,03,12.60
2020,08,08,05,04,12.60
2020,08,08,05,05,12.60
2020,08,08,05,06,12.60
2020,08,08,05,07,12.60
2020,08,08,05,08,12.60
2020,08,08,05,09,12.60
2020,08,08,05,10,12.60
2020,08,08,05,11,12.60
2020,08,08,05,12,12.60
2020,08,08,05,13,12.60
2020,08,08,05,14,12.60
2020,08,08,05,15,12.50
2020,08,08,05,16,12.60
2020,08,08,05,17,12.50
2020,08,08,05,18,12.50
2020,08,08,05,19,12.50
2020,08,08,05,20,12.50
2020,08,08,05,21,12.50
2020,08,08,05,22,12.50
2020,08,08,05,23,12.50
2020,08,08,05,24,12.50
2020,08,08,05,25,12.50
2020,08,08,05,26,12.40
2020,08,08,05,27,12.50
2020,08,08,05,28,12.40
2020,08,08,05,29,12.40
2020,08,08,05,30,12.40
2020,08,08,05,31,12.40
2020,08,08,05,32,12.40
2020,08,08,05,33,12.40
2020,08,08,05,34,12.40
2020,08,08,05,35,12.40
2020,08,08,05,36,12.30
2020,08,08,05,37,12.30
2020,08,08,05,38,12.30
2020,08,08,05,39,12.30
2020,08,08,05,40,12.30
2020,08,08,05,41,12.30
2020,08,08,05,42,12.30
2020,08,08,05,43,12.30
2020,08,08,05,44,12.30
2020,08,08,05,45,12.30
2020,08,08,05,46,12.30
2020,08,08,05,47,12.30
2020,08,08,05,48,12.20
2020,08,08,05,49,12.30
2020,08,08,05,50,12.20
2020,08,08,05,51,12.20
2020,08,08,05,52,12.20
2020,08,08,05,53,12.20
2020,08,08,05,54,12.20
2020,08,08,05,55,12.20
2020,08,08,05,56,12.20
2020,08,08,05,57,12.20
2020,08,08,05,58,12.20
2020,08,08,05,59,12.20
2020,08,08,06,00,12.20
2020,08,08,06,01,12.20
2020,08,08,06,02,12.20
2020,08,08,06,03,12.20
2020,08,08,06,04,12.20
2020,08,08,06,05,12.20
2020,08,08,06,06,12.20
2020,08,08,06,07,12.20
2020,08,08,06,08,12.20
2020,08,08,06,09,12.20
2020,08,08,06,10,12.20
2020,08,08,06,11,12.20
2020,08,08,06,12,12.20
2020,08,08,06,13,12.20
2020,08,08,06,14,12.20
2020,08,08,06,15,12.20
2020,08,08,06,16,12.20
2020,08,08,06,17,12.20
2020,08,08,06,18,12.20
2020,08,08,06,19,12.20
2020,08,08,06,20,12.20
2020,08,08,06,21,12.20
2020,08,08,06,22,12.20
2020,08,08,06,23,12.20
2020,08,08,06,24,12.20
2020,08,08,06,25,12.20
2020,08,08,06,26,12.20
2020,08,08,06,27,12.10
2020,08,08,06,28,12.10
2020,08,08,06,29,12.10
2020,08,08,06,30,12.10
2020,08,08,06,31,12.10
2020,08,08,06,32,12.10
2020,08,08,06,33,12.10
2020,08,08,06,34,12.10
2020,08,08,06,35,12.10
2020,08,08,06,36,12.10
2020,08,08,06,37,12.10
2020,08,08,06,38,12.10
2020,08,08,06,39,12.10
2020,08,08,06,40,12.10
2020,08,08,06,41,12.10
2020,08,08,06,42,12.10
2020,08,08,06,43,12.10
2020,08,08,06,44,12.10
2020,08,08,06,45,12.10
2020,08,08,06,46,12.10
2020,08,08,06,47,12.10
2020,08,08,06,48,12.20
2020,08,08,06,49,12.20
2020,08,08,06,50,12.20
2020,08,08,06,51,12.20
2020,08,08,06,52,12.20
2020,08,08,06,53,12.20
2020,08,08,06,54,12.20
2020,08,08,06,55,12.30
2020,08,08,06,56,12.30
2020,08,08,06,57,12.30
2020,08,08,06,58,12.30
2020,08,08,06,59,12.30
2020,08,08,07,00,12.30
2020,08,08,07,01,12.30
2020,08,08,07,02,12.30
2020,08,08,07,03,12.30
2020,08,08,07,04,12.30
2020,08,08,07,05,12.30
2020,08,08,07,06,12.40
2020,08,08,07,07,12.40
2020,08,08,07,08,12.40
2020,08,08,07,09,12.40
2020,08,08,07,10,12.40
2020,08,08,07,11,12.40
2020,08,08,07,12,12.40
2020,08,08,07,13,12.40
2020,08,08,07,14,12.40
2020,08,08,07,15,12.40
2020,08,08,07,16,12.40
2020,08,08,07,17,12.40
2020,08,08,07,18,12.40
2020,08,08,07,19,12.40
2020,08,08,07,20,12.40
2020,08,08,07,21,12.40
2020,08,08,07,22,12.40
2020,08,08,07,23,12.40
2020,08,08,07,24,12.40
2020,08,08,07,25,12.40
2020,08,08,07,26,12.40
2020,08,08,07,27,12.40
2020,08,08,07,28,12.40
2020,08,08,07,29,12.40
2020,08,08,07,30,12.40
2020,08,08,07,31,12.40
2020,08,08,07,32,12.40
2020,08,08,07,33,12.40
2020,08,08,07,34,12.40
2020,08,08,07,35,12.40
2020,08,08,07,36,12.40
2020,08,08,07,37,12.40
2020,08,08,07,38,12.40
2020,08,08,07,39,12.40
2020,08,08,07,40,12.40
2020,08,08,07,41,12.40
2020,08,08,07,42,12.40
2020,08,08,07,43,12.40
2020,08,08,07,44,12.40
2020,08,08,07,45,12.30
2020,08,08,07,46,12.30
2020,08,08,07,47,12.30
2020,08,08,07,48,12.30
2020,08,08,07,49,12.30
2020,08,08,07,50,12.30
2020,08,08,07,51,12.40
2020,08,08,07,52,12.40
2020,08,08,07,53,12.40
2020,08,08,07,54,12.40
2020,08,08,07,55,12.40
2020,08,08,07,56,12.40
2020,08,08,07,57,12.40
2020,08,08,07,58,12.40
2020,08,08,07,59,12.40
2020,08,08,08,00,12.40
2020,08,08,08,01,12.40
2020,08,08,08,02,12.40
2020,08,08,08,03,12.40
2020,08,08,08,04,12.40
2020,08,08,08,05,12.40
2020,08,08,08,06,12.40
2020,08,08,08,07,12.40
2020,08,08,08,08,12.40
2020,08,08,08,09,12.40
2020,08,08,08,10,12.50
2020,08,08,08,11,12.50
2020,08,08,08,12,12.50
2020,08,08,08,13,12.50
2020,08,08,08,14,12.50
2020,08,08,08,15,12.60
2020,08,08,08,16,12.60
2020,08,08,08,17,12.60
2020,08,08,08,18,12.60
2020,08,08,08,19,12.60
2020,08,08,08,20,12.60
2020,08,08,08,21,12.60
2020,08,08,08,22,12.60
2020,08,08,08,23,12.70
2020,08,08,08,24,12.70
2020,08,08,08,25,12.70
2020,08,08,08,26,12.70
2020,08,08,08,27,12.70
2020,08,08,08,28,12.70
2020,08,08,08,29,12.80
2020,08,08,08,30,12.80
2020,08,08,08,31,12.80
2020,08,08,08,32,12.80
2020,08,08,08,33,12.90
2020,08,08,08,34,12.90
2020,08,08,08,35,12.90
2020,08,08,08,36,13.00
2020,08,08,08,37,13.00
2020,08,08,08,38,13.00
2020,08,08,08,39,13.10
2020,08,08,08,40,13.10
2020,08,08,08,41,13.10
2020,08,08,08,42,13.10
2020,08,08,08,43,13.20
2020,08,08,08,44,13.20
2020,08,08,08,45,13.30
2020,08,08,08,46,13.30
2020,08,08,08,47,13.30
2020,08,08,08,48,13.40
2020,08,08,08,49,13.40
2020,08,08,08,50,13.50
2020,08,08,08,51,13.50
2020,08,08,08,52,13.60
2020,08,08,08,53,13.60
2020,08,08,08,54,13.60
2020,08,08,08,55,13.70
2020,08,08,08,56,13.70
2020,08,08,08,57,13.80
2020,08,08,08,58,13.80
2020,08,08,08,59,13.80
2020,08,08,09,00,13.90
2020,08,08,09,01,13.90
2020,08,08,09,02,13.90
2020,08,08,09,03,14.00
2020,08,08,09,04,14.00
2020,08,08,09,05,14.00
2020,08,08,09,06,14.10
2020,08,08,09,07,14.10
2020,08,08,09,08,14.10
2020,08,08,09,09,14.20
2020,08,08,09,10,14.20
2020,08,08,09,11,14.20
2020,08,08,09,12,14.20
2020,08,08,09,13,14.30
2020,08,08,09,14,14.30
2020,08,08,09,15,14.30
2020,08,08,09,16,14.30
2020,08,08,09,17,14.40
2020,08,08,09,18,14.40
2020,08,08,09,19,14.40
2020,08,08,09,20,14.40
2020,08,08,09,21,14.50
2020,08,08,09,22,14.50
2020,08,08,09,23,14.50
2020,08,08,09,24,14.60
2020,08,08,09,25,14.60
2020,08,08,09,26,14.50
2020,08,08,09,27,14.50
2020,08,08,09,28,14.50
2020,08,08,09,29,14.50
2020,08,08,09,30,14.50
2020,08,08,09,31,14.50
2020,08,08,09,32,14.50
2020,08,08,09,33,14.40
2020,08,08,09,34,14.40
2020,08,08,09,35,14.40
2020,08,08,09,36,14.40
2020,08,08,09,37,14.40
2020,08,08,09,38,14.50
2020,08,08,09,39,14.50
2020,08,08,09,40,14.50
2020,08,08,09,41,14.50
2020,08,08,09,42,14.50
2020,08,08,09,43,14.50
2020,08,08,09,44,14.60
2020,08,08,09,45,14.60
2020,08,08,09,46,14.60
2020,08,08,09,47,14.60
2020,08,08,09,48,14.60
2020,08,08,09,49,14.60
2020,08,08,09,50,14.60
2020,08,08,09,51,14.60
2020,08,08,09,52,14.60
2020,08,08,09,53,14.60
2020,08,08,09,54,14.60
2020,08,08,09,55,14.60
2020,08,08,09,56,14.60
2020,08,08,09,57,14.60
2020,08,08,09,58,14.60
2020,08,08,09,59,14.70
2020,08,08,10,00,14.70
2020,08,08,10,01,14.70
2020,08,08,10,02,14.70
2020,08,08,10,03,14.70
2020,08,08,10,04,14.70
2020,08,08,10,05,14.80
2020,08,08,10,06,14.80
2020,08,08,10,07,14.90
2020,08,08,10,08,14.90
2020,08,08,10,09,15.00
2020,08,08,10,10,15.00
2020,08,08,10,11,15.00
2020,08,08,10,12,15.00
2020,08,08,10,13,15.00
2020,08,08,10,14,15.00
2020,08,08,10,15,15.00
2020,08,08,10,16,15.00
2020,08,08,10,17,15.00
2020,08,08,10,18,15.00
2020,08,08,10,19,15.10
2020,08,08,10,20,15.10
2020,08,08,10,21,15.20
2020,08,08,10,22,15.20
2020,08,08,10,23,15.30
2020,08,08,10,24,15.30
2020,08,08,10,25,15.30
2020,08,08,10,26,15.30
2020,08,08,10,27,15.40
2020,08,08,10,28,15.40
2020,08,08,10,29,15.50
2020,08,08,10,30,15.50
2020,08,08,10,31,15.60
2020,08,08,10,32,15.60
2020,08,08,10,33,15.70
2020,08,08,10,34,15.70
2020,08,08,10,35,15.70
2020,08,08,10,36,15.70
2020,08,08,10,37,15.80
2020,08,08,10,38,15.80
2020,08,08,10,39,15.80
2020,08,08,10,40,15.90
2020,08,08,10,41,15.90
2020,08,08,10,42,16.00
2020,08,08,10,43,16.00
2020,08,08,10,44,16.00
2020,08,08,10,45,16.10
2020,08,08,10,46,16.10
2020,08,08,10,47,16.20
2020,08,08,10,48,16.20
2020,08,08,10,49,16.20
2020,08,08,10,50,16.20
2020,08,08,10,51,16.20
2020,08,08,10,52,16.30
2020,08,08,10,53,16.30
2020,08,08,10,54,16.40
2020,08,08,10,55,16.40
2020,08,08,10,56,16.40
2020,08,08,10,57,16.40
2020,08,08,10,58,16.50
2020,08,08,10,59,16.50
2020,08,08,11,00,16.60
2020,08,08,11,01,16.60
2020,08,08,11,02,16.60
2020,08,08,11,03,16.60
2020,08,08,11,04,16.60
2020,08,08,11,05,16.60
2020,08,08,11,06,16.60
2020,08,08,11,07,16.60
2020,08,08,11,08,16.60
2020,08,08,11,09,16.60
2020,08,08,11,10,16.70
2020,08,08,11,11,16.70
2020,08,08,11,12,16.70
2020,08,08,11,13,16.70
2020,08,08,11,14,16.70
2020,08,08,11,15,16.70
2020,08,08,11,16,16.70
2020,08,08,11,17,16.70
2020,08,08,11,18,16.70
2020,08,08,11,19,16.70
2020,08,08,11,20,16.80
2020,08,08,11,21,16.80
2020,08,08,11,22,16.80
2020,08,08,11,23,16.90
2020,08,08,11,24,16.90
2020,08,08,11,25,16.90
2020,08,08,11,26,17.00
2020,08,08,11,27,17.00
2020,08,08,11,28,17.10
2020,08,08,11,29,17.10
2020,08,08,11,30,17.10
2020,08,08,11,31,17.10
2020,08,08,11,32,17.20
2020,08,08,11,33,17.20
2020,08,08,11,34,17.20
2020,08,08,11,35,17.30
2020,08,08,11,36,17.30
2020,08,08,11,37,17.30
2020,08,08,11,38,17.30
2020,08,08,11,39,17.30
2020,08,08,11,40,17.40
2020,08,08,11,41,17.40
2020,08,08,11,42,17.40
2020,08,08,11,43,17.40
2020,08,08,11,44,17.50
2020,08,08,11,45,17.50
2020,08,08,11,46,17.50
2020,08,08,11,47,17.60
2020,08,08,11,48,17.60
2020,08,08,11,49,17.60
2020,08,08,11,50,17.60
2020,08,08,11,51,17.60
2020,08,08,11,52,17.60
2020,08,08,11,53,17.60
2020,08,08,11,54,17.60
2020,08,08,11,55,17.60
2020,08,08,11,56,17.60
2020,08,08,11,57,17.70
2020,08,08,11,58,17.70
2020,08,08,11,59,17.70
2020,08,08,12,00,17.80
2020,08,08,12,01,17.80
2020,08,08,12,02,17.90
2020,08,08,12,03,17.90
2020,08,08,12,04,18.00
2020,08,08,12,05,18.00
2020,08,08,12,06,18.10
2020,08,08,12,07,18.10
2020,08,08,12,08,18.20
2020,08,08,12,09,18.30
2020,08,08,12,10,18.30
2020,08,08,12,11,18.40
2020,08,08,12,12,18.50
2020,08,08,12,13,18.60
2020,08,08,12,14,18.60
2020,08,08,12,15,18.60
2020,08,08,12,16,18.70
2020,08,08,12,17,18.70
2020,08,08,12,18,18.70
2020,08,08,12,19,18.70
2020,08,08,12,20,18.70
2020,08,08,12,21,18.70
2020,08,08,12,22,18.70
2020,08,08,12,23,18.70
2020,08,08,12,24,18.70
2020,08,08,12,25,18.70
2020,08,08,12,26,18.70
2020,08,08,12,27,18.70
2020,08,08,12,28,18.80
2020,08,08,12,29,18.80
2020,08,08,12,30,18.80
2020,08,08,12,31,18.90
2020,08,08,12,32,18.90
2020,08,08,12,33,19.00
2020,08,08,12,34,19.10
2020,08,08,12,35,19.20
2020,08,08,12,36,19.30
2020,08,08,12,37,19.40
2020,08,08,12,38,19.40
2020,08,08,12,39,19.60
2020,08,08,12,40,19.70
2020,08,08,12,41,19.70
2020,08,08,12,42,19.80
2020,08,08,12,43,19.90
2020,08,08,12,44,19.90
2020,08,08,12,45,20.00
2020,08,08,12,46,20.00
2020,08,08,12,47,20.00
2020,08,08,12,48,20.00
2020,08,08,12,49,20.00
2020,08,08,12,50,19.90
2020,08,08,12,51,19.80
2020,08,08,12,52,19.70
2020,08,08,12,53,19.60
2020,08,08,12,54,19.50
2020,08,08,12,55,19.50
2020,08,08,12,56,19.40
2020,08,08,12,57,19.40
2020,08,08,12,58,19.40
2020,08,08,12,59,19.40
2020,08,08,13,00,19.40
2020,08,08,13,01,19.30
2020,08,08,13,02,19.30
2020,08,08,13,03,19.20
2020,08,08,13,04,19.20
2020,08,08,13,05,19.20
2020,08,08,13,06,19.10
2020,08,08,13,07,19.10
2020,08,08,13,08,19.00
2020,08,08,13,09,19.00
2020,08,08,13,10,18.90
2020,08,08,13,11,18.90
2020,08,08,13,12,18.80
2020,08,08,13,13,18.80
2020,08,08,13,14,18.70
2020,08,08,13,15,18.70
2020,08,08,13,16,18.60
2020,08,08,13,17,18.60
2020,08,08,13,18,18.50
2020,08,08,13,19,18.50
2020,08,08,13,20,18.40
2020,08,08,13,21,18.40
2020,08,08,13,22,18.30
2020,08,08,13,23,18.30
2020,08,08,13,24,18.20
2020,08,08,13,25,18.20
2020,08,08,13,26,18.10
2020,08,08,13,27,18.10
2020,08,08,13,28,18.00
2020,08,08,13,29,18.00
2020,08,08,13,30,17.90
2020,08,08,13,31,17.90
2020,08,08,13,32,17.90
2020,08,08,13,33,17.80
2020,08,08,13,34,17.80
2020,08,08,13,35,17.80
2020,08,08,13,36,17.80
2020,08,08,13,37,17.80
2020,08,08,13,38,17.80
2020,08,08,13,39,17.80
2020,08,08,13,40,17.80
2020,08,08,13,41,17.80
2020,08,08,13,42,17.80
2020,08,08,13,43,17.80
2020,08,08,13,44,17.80
2020,08,08,13,45,17.80
2020,08,08,13,46,17.80
2020,08,08,13,47,17.80
2020,08,08,13,48,17.80
2020,08,08,13,49,17.80
2020,08,08,13,50,17.70
2020,08,08,13,51,17.70
2020,08,08,13,52,17.70
2020,08,08,13,53,17.70
2020,08,08,13,54,17.70
2020,08,08,13,55,17.70
2020,08,08,13,56,17.70
2020,08,08,13,57,17.70
2020,08,08,13,58,17.70
2020,08,08,13,59,17.70
2020,08,08,14,00,17.70
2020,08,08,14,01,17.70
2020,08,08,14,02,17.70
2020,08,08,14,03,17.70
2020,08,08,14,04,17.70
2020,08,08,14,05,17.70
2020,08,08,14,06,17.70
2020,08,08,14,07,17.70
2020,08,08,14,08,17.70
2020,08,08,14,09,17.70
2020,08,08,14,10,17.70
2020,08,08,14,11,17.70
2020,08,08,14,12,17.70
2020,08,08,14,13,17.70
2020,08,08,14,14,17.70
2020,08,08,14,15,17.70
2020,08,08,14,16,17.70
2020,08,08,14,17,17.70
2020,08,08,14,18,17.70
2020,08,08,14,19,17.70
2020,08,08,14,20,17.60
2020,08,08,14,21,17.70
2020,08,08,14,22,17.70
2020,08,08,14,23,17.70
2020,08,08,14,24,17.70
2020,08,08,14,25,17.70
2020,08,08,14,26,17.80
2020,08,08,14,27,17.80
2020,08,08,14,28,17.90
2020,08,08,14,29,17.90
2020,08,08,14,30,18.00
2020,08,08,14,31,18.00
2020,08,08,14,32,18.10
2020,08,08,14,33,18.20
2020,08,08,14,34,18.20
2020,08,08,14,35,18.30
2020,08,08,14,36,18.30
2020,08,08,14,37,18.40
2020,08,08,14,38,18.50
2020,08,08,14,39,18.60
2020,08,08,14,40,18.60
2020,08,08,14,41,18.70
2020,08,08,14,42,18.80
2020,08,08,14,43,18.80
2020,08,08,14,44,18.90
2020,08,08,14,45,19.00
2020,08,08,14,46,19.00
2020,08,08,14,47,19.10
2020,08,08,14,48,19.10
2020,08,08,14,49,19.10
2020,08,08,14,50,19.20
2020,08,08,14,51,19.20
2020,08,08,14,52,19.20
2020,08,08,14,53,19.20
2020,08,08,14,54,19.20
2020,08,08,14,55,19.20
2020,08,08,14,56,19.20
2020,08,08,14,57,19.20
2020,08,08,14,58,19.30
2020,08,08,14,59,19.20
2020,08,08,15,00,19.20
2020,08,08,15,01,19.20
2020,08,08,15,02,19.20
2020,08,08,15,03,19.10
2020,08,08,15,04,19.10
2020,08,08,15,05,19.10
2020,08,08,15,06,19.10
2020,08,08,15,07,19.10
2020,08,08,15,08,19.10
2020,08,08,15,09,19.00
2020,08,08,15,10,19.00
2020,08,08,15,11,19.00
2020,08,08,15,12,19.00
2020,08,08,15,13,18.90
2020,08,08,15,14,18.90
2020,08,08,15,15,18.90
2020,08,08,15,16,18.90
2020,08,08,15,17,18.90
2020,08,08,15,18,18.90
2020,08,08,15,19,18.80
2020,08,08,15,20,18.80
2020,08,08,15,21,18.80
2020,08,08,15,22,18.80
2020,08,08,15,23,18.80
2020,08,08,15,24,18.80
2020,08,08,15,25,18.80
2020,08,08,15,26,18.90
2020,08,08,15,27,18.90
2020,08,08,15,28,18.90
2020,08,08,15,29,18.90
2020,08,08,15,30,19.00
2020,08,08,15,31,19.10
2020,08,08,15,32,19.20
2020,08,08,15,33,19.20
2020,08,08,15,34,19.30
2020,08,08,15,35,19.40
2020,08,08,15,36,19.60
2020,08,08,15,37,19.80
2020,08,08,15,38,19.90
2020,08,08,15,39,20.10
2020,08,08,15,40,20.20
2020,08,08,15,41,20.40
2020,08,08,15,42,20.60
2020,08,08,15,43,20.70
2020,08,08,15,44,20.90
2020,08,08,15,45,21.00
2020,08,08,15,46,21.10
2020,08,08,15,47,21.10
2020,08,08,15,48,21.10
2020,08,08,15,49,21.10
2020,08,08,15,50,21.00
2020,08,08,15,51,21.00
2020,08,08,15,52,20.90
2020,08,08,15,53,20.80
2020,08,08,15,54,20.80
2020,08,08,15,55,20.70
2020,08,08,15,56,20.70
2020,08,08,15,57,20.60
2020,08,08,15,58,20.60
2020,08,08,15,59,20.50
2020,08,08,16,00,20.40
2020,08,08,16,01,20.40
2020,08,08,16,02,20.30
2020,08,08,16,03,20.30
2020,08,08,16,04,20.30
2020,08,08,16,05,20.30
2020,08,08,16,06,20.30
2020,08,08,16,07,20.20
2020,08,08,16,08,20.20
2020,08,08,16,09,20.20
2020,08,08,16,10,20.20
2020,08,08,16,11,20.20
2020,08,08,16,12,20.20
2020,08,08,16,13,20.20
2020,08,08,16,14,20.20
2020,08,08,16,15,20.20
2020,08,08,16,16,20.20
2020,08,08,16,17,20.20
2020,08,08,16,18,20.20
2020,08,08,16,19,20.20
2020,08,08,16,20,20.20
2020,08,08,16,21,20.20
2020,08,08,16,22,20.20
2020,08,08,16,23,20.20
2020,08,08,16,24,20.20
2020,08,08,16,25,20.20
2020,08,08,16,26,20.20
2020,08,08,16,27,20.20
2020,08,08,16,28,20.20
2020,08,08,16,29,20.20
2020,08,08,16,30,20.20
2020,08,08,16,31,20.30
2020,08,08,16,32,20.30
2020,08,08,16,33,20.30
2020,08,08,16,34,20.30
2020,08,08,16,35,20.30
2020,08,08,16,36,20.30
2020,08,08,16,37,20.30
2020,08,08,16,38,20.30
2020,08,08,16,39,20.30
2020,08,08,16,40,20.30
2020,08,08,16,41,20.30
2020,08,08,16,42,20.30
2020,08,08,16,43,20.40
2020,08,08,16,44,20.50
2020,08,08,16,45,20.60
2020,08,08,16,46,20.70
2020,08,08,16,47,20.70
2020,08,08,16,48,20.80
2020,08,08,16,49,20.90
2020,08,08,16,50,20.90
2020,08,08,16,51,20.90
2020,08,08,16,52,20.90
2020,08,08,16,53,20.90
2020,08,08,16,54,20.90
2020,08,08,16,55,20.80
2020,08,08,16,56,20.70
2020,08,08,16,57,20.60
2020,08,08,16,58,20.50
2020,08,08,16,59,20.50
2020,08,08,17,00,20.50
2020,08,08,17,01,20.40
2020,08,08,17,02,20.40
2020,08,08,17,03,20.40
2020,08,08,17,04,20.30
2020,08,08,17,05,20.30
2020,08,08,17,06,20.30
2020,08,08,17,07,20.30
2020,08,08,17,08,20.30
2020,08,08,17,09,20.30
2020,08,08,17,10,20.30
2020,08,08,17,11,20.30
2020,08,08,17,12,20.30
2020,08,08,17,13,20.30
2020,08,08,17,14,20.30
2020,08,08,17,15,20.30
2020,08,08,17,16,20.30
2020,08,08,17,17,20.30
2020,08,08,17,18,20.30
2020,08,08,17,19,20.30